This demonstration page uses our WeatherBlox Daily Observations layout. Learn more.

Left ArrowRight Arrow

Hourly Observations for August 9, 2015

Temp ( °F °C ) Dew Point ( °F °C ) Humidity (%) Winds ( mph kmh ) Pressure ( in mb ) Visibility ( mi km ) Precip ( " mm )
12:53 am 00:53 Clear 74 23.3 52 11.1 46 46 N 5 7 29.86 1011 10 16 0.00 0.00
1:53 am 01:53 Clear 71 21.7 51 10.6 49 49 WNW 3 6 29.86 1011 10 16 0.00 0.00
2:53 am 02:53 Clear 73 22.8 50 10 44 44 Calm 29.86 1011 10 16 0.00 0.00
3:53 am 03:53 Clear 69 20.6 51 10.6 53 53 Calm 29.87 1012 10 16 0.00 0.00
4:53 am 04:53 Clear 68 20 52 11.1 57 57 Calm 29.87 1012 10 16 0.00 0.00
5:53 am 05:53 Clear 65 18.3 52 11.1 63 63 Calm 29.88 1012 10 16 0.00 0.00
6:53 am 06:53 Sunny 66 18.9 52 11.1 61 61 Calm 29.89 1012 10 16 0.00 0.00
7:53 am 07:53 Sunny 70 21.1 49 9.4 47 47 Calm 29.91 1013 10 16 0.00 0.00
8:53 am 08:53 Sunny 74 23.3 51 10.6 45 45 Calm 29.91 1013 10 16 0.00 0.00
9:53 am 09:53 Sunny 78 25.6 52 11.1 40 40 Calm 29.90 1013 10 16 0.00 0.00
10:53 am 10:53 Sunny 83 28.3 52 11.1 34 34 Calm 29.89 1012 10 16 0.00 0.00
11:53 am 11:53 Sunny 85 29.4 50 10 30 30 VRB 5 7 29.88 1012 10 16 0.00 0.00
12:53 pm 12:53 Sunny 90 32.2 51 10.6 26 26 Calm 29.86 1011 10 16 0.00 0.00
1:53 pm 13:53 Sunny 94 34.4 50 10 22 22 S 8 13 29.84 1011 7 11 0.00 0.00
2:53 pm 14:53 Sunny 94 34.4 50 10 22 22 SSE 8 13 29.83 1010 9 14 0.00 0.00
3:53 pm 15:53 Sunny 95 35 45 7.2 18 18 SSW 7 11 29.80 1009 10 16 0.00 0.00
4:53 pm 16:53 Sunny 96 35.6 41 5 15 15 SW 8 13 29.78 1009 10 16 0.00 0.00
5:53 pm 17:53 Sunny 97 36.1 42 5.6 15 15 SSE 5 7 29.78 1008 10 16 0.00 0.00
6:53 pm 18:53 Sunny 96 35.6 43 6.1 16 16 SE 8 13 29.76 1008 10 16 0.00 0.00
7:53 pm 19:53 Sunny 93 33.9 44 6.7 18 18 ESE 3 6 29.76 1008 10 16 0.00 0.00
8:53 pm 20:53 Mostly Cloudy with Haze 90 32.2 47 8.3 23 23 NW 6 9 29.78 1008 3 4 0.00 0.00
9:37 pm 21:37 Cloudy with Haze 89 31.7 48 8.9 24 24 NNW 5 7 29.77 1008 3 5 0.00 0.00
9:53 pm 21:53 Cloudy with Haze 88 31.1 48 8.9 25 25 NW 8 13 29.79 1009 3 5 0.00 0.00
10:32 pm 22:32 Cloudy with Haze 87 30.6 46 7.8 24 24 VRB 7 11 29.80 1009 3 5 0.00 0.00
10:53 pm 22:53 Cloudy with Haze 86 30 46 7.8 25 25 N 5 7 29.80 1009 3 5 0.00 0.00
11:53 pm 23:53 Cloudy with Haze 81 27.2 46 7.8 29 29 Calm 29.81 1009 4 6 0.00 0.00

Powered by AerisWeather